SCP
0 0 0 0 0 0 0 0 0 0 0 0 1 1 1 1 1 1 1 1 1 1 1 2 2 2 2 3 3 4 5 6 7 7 7 6 5 5 5 5 4 3 2 2
0 0 0 0 0 0 0 0 0 0 0 0 1 1 1 1 1 1 1 1 1 1 2 2 2 2 3 3 4 4 5 5 6 8 8 7 7 6 6 5 4 3 3 2
0 0 0 0 0 0 0 0 0 0 0 0 1 1 1 1 1 1 1 1 1 1 2 2 2 3 3 3 4 4 5 5 6 8 9 8 8 8 7 6 6 5 4 3
0 0 0 0 0 0 0 0 0 0 0 0 0 1 1 1 1 1 1 1 1 1 2 2 2 2 2 3 3 3 4 5 6 7 8 9 10 9 8 8 7 6 5 4
0 0 0 0 0 0 0 0 0 0 0 0 0 0 1 1 1 1 1 1 1 1 1 1 1 1 1 1 2 3 4 4 5 6 7 9 11 10 9 8 7 6 5 4
0 0 0 0 0 0 0 0 0 0 0 0 0 0 1 1 1 1 1 1 1 1 1 1 1 1 1 1 2 3 4 4 5 5 6 8 10 10 8 6 5 4 3 3
0 0 0 0 0 0 0 0 0 0 0 0 0 1 1 1 1 1 1 1 1 1 1 1 1 1 1 1 2 2 3 4 4 5 6 8 8 8 6 4 3 2 2 2
0 0 0 0 0 0 0 0 0 0 0 0 0 1 1 1 1 1 1 1 1 1 1 1 1 1 1 1 1 2 2 2 3 4 5 6 5 5 3 2 1 1 1 1
0 0 0 0 0 0 0 0 0 0 0 0 0 0 0 0 0 0 1 1 1 1 1 1 1 1 1 1 1 1 1 1 1 2 2 3 3 2 2 1 1 1 1 1
0 0 0 0 0 0 0 0 0 0 0 0 0 0 0 0 0 0 0 1 1 1 1 0 0 1 1 1 1 1 1 1 1 1 1 1 1 1 1 1 0 0 0 0
0 0 0 0 0 0 0 0 0 0 0 0 0 0 0 0 0 0 0 1 1 1 0 0 0 0 1 1 1 1 1 1 1 1 0 0 0 0 0 0 0 0 0 0
0 0 0 0 0 0 0 0 0 0 0 0 0 0 0 0 0 0 0 0 0 0 0 0 0 0 0 1 1 1 1 1 1 1 0 0 0 0 0 0 0 0 0 0
0 0 0 0 0 0 0 0 0 0 0 0 0 0 0 0 0 0 0 0 0 0 0 0 0 0 0 0 0 0 0 0 0 0 0 0 0 0 0 0 0 0 0 0
0 0 0 0 0 0 0 0 0 0 0 0 0 0 0 0 0 0 0 0 0 0 0 0 0 0 0 0 0 0 0 0 0 0 0 0 0 0 0 0 0 0 0 0
0 0 0 0 0 0 0 0 0 0 0 0 0 0 0 0 0 0 0 0 0 0 0 0 0 0 0 0 0 0 0 0 0 0 0 0 0 0 0 0 0 0 0 0
0 0 0 0 0 0 0 0 0 0 0 0 0 0 0 0 0 0 0 0 0 0 0 0 0 0 0 0 0 0 0 0 0 0 0 0 0 0 0 0 0 0 0 1
0 0 0 0 0 0 0 0 0 0 0 0 0 0 0 0 0 0 0 0 0 0 0 0 0 0 0 0 0 0 0 0 0 0 0 0 0 0 0 0 0 0 0 0
0 0 0 0 0 0 0 0 0 0 0 0 0 0 0 0 0 0 0 0 0 0 0 0 0 0 0 0 0 0 0 0 0 0 0 0 0 0 0 0 0 0 0 0
0 0 0 0 0 0 0 0 0 0 0 0 0 0 0 0 0 0 0 0 0 0 0 0 0 0 0 0 0 0 0 0 0 0 0 0 0 0 0 0 0 0 0 0
0 0 0 0 0 0 0 0 0 0 0 0 0 0 0 0 0 0 0 0 0 0 0 0 0 0 0 0 0 0 0 0 0 0 0 0 0 0 0 0 0 0 0 0
0 0 0 0 0 0 0 0 0 0 0 0 0 0 0 0 0 0 0 0 0 0 0 0 0 0 0 0 0 0 0 0 0 0 0 0 0 0 0 0 0 0 0 0
0 0 0 0 0 0 0 0 0 0 0 0 0 0 0 0 0 0 0 0 0 0 0 0 0 0 0 0 0 0 0 0 0 0 0 0 0 0 0 0 0 0 0 0
0 0 0 0 0 0 0 0 0 0 0 0 0 0 0 0 0 0 0 0 0 0 0 0 0 0 0 0 0 0 0 0 0 0 0 0 0 0 0 0 0 0 0 0
0 0 0 0 0 0 0 0 0 0 0 0 0 0 -0 0 0 0 0 0 0 0 0 0 0 0 0 0 0 0 0 0 0 0 0 0 0 0 0 0 0 0 0 0
0 0 0 0 0 0 0 0 0 0 0 0 0 -0 -0 -0 -0 0 0 0 0 0 0 0 0 0 0 0 0 0 0 0 0 0 0 0 0 0 0 0 0 0 0 0
0 0 0 0 0 0 0 0 0 0 0 0 0 -0 -0 -0 -0 0 0 0 0 0 0 0 0 0 0 0 0 0 0 0 0 0 0 0 0 0 0 0 0 0 0 0
Wind_Speed
2 2 5 8 9 9 11 11 11 6 1 3 5 3 3 7 6 5 6 8 10 11 11 10 10 10 10 10 10 8 5 3 4 4 4 4 4 3 4 4 4 4 2 3
1 7 8 8 7 10 12 13 10 6 7 7 6 5 1 5 7 7 9 10 11 11 11 11 10 10 11 10 11 11 9 6 3 3 6 5 5 4 3 3 4 4 4 3
8 7 8 8 8 10 12 12 11 10 10 10 11 9 2 5 10 10 11 11 11 11 12 12 11 11 10 11 11 9 10 8 5 3 3 4 4 3 3 3 3 4 4 3
6 8 9 9 9 10 10 12 13 13 12 9 10 6 4 8 11 13 13 13 12 12 12 12 11 11 11 11 11 10 10 9 7 2 4 5 5 5 4 4 4 4 3 2
8 10 10 10 11 10 10 14 15 16 13 12 11 8 5 9 13 14 15 15 14 14 14 13 12 12 12 12 11 10 9 9 8 4 0 3 4 4 4 4 5 4 3 2
9 8 8 10 12 10 12 15 15 13 10 9 6 3 7 10 14 15 16 16 16 16 15 14 13 11 11 11 10 10 9 9 8 5 3 4 7 7 7 6 5 4 2 1
9 10 10 11 13 12 14 12 7 5 2 2 5 7 8 12 14 14 16 16 16 15 14 14 14 12 11 11 11 10 10 9 8 7 5 5 7 7 7 6 5 5 3 1
3 7 10 10 10 11 12 12 7 6 6 6 7 7 6 12 13 13 14 14 15 15 14 14 13 11 10 11 10 10 9 9 9 8 7 6 6 5 4 4 3 3 3 3
7 6 8 8 8 11 10 10 9 7 8 4 4 5 6 15 17 18 17 16 17 16 15 14 12 11 10 10 10 10 9 8 8 7 6 6 6 5 4 3 2 1 2 3
7 2 7 6 8 12 10 9 6 6 6 4 5 7 8 15 16 17 17 16 16 16 14 13 11 11 10 9 9 9 8 7 6 6 5 5 5 4 3 2 2 1 1 1
8 4 5 6 9 12 11 11 7 5 4 4 4 4 7 10 11 13 14 14 14 14 12 11 11 10 10 10 9 9 8 8 7 6 5 4 4 4 3 2 1 1 1 2
5 6 4 9 7 7 9 10 8 5 6 5 3 3 6 7 8 9 11 12 12 11 11 10 10 10 10 10 10 10 9 9 8 7 6 6 5 4 3 2 2 2 2 3
8 6 1 6 4 7 8 10 8 4 3 5 3 2 4 6 7 7 8 9 9 9 10 10 9 9 8 8 8 9 9 8 7 7 6 6 5 5 4 3 3 3 3 2
5 6 9 7 6 5 7 9 9 6 4 4 3 1 4 6 7 7 7 7 7 7 7 7 6 6 6 7 7 7 7 7 7 6 6 6 5 5 4 4 4 4 4 4
4 6 9 8 5 4 6 7 9 9 6 4 3 2 3 5 5 5 5 6 7 7 8 7 6 6 5 6 6 6 5 6 7 7 7 7 6 5 5 6 6 6 6 7
3 3 5 6 4 2 3 5 5 5 5 4 3 3 2 2 3 5 7 8 8 9 9 9 8 7 6 5 5 5 6 6 7 7 8 7 7 7 7 7 7 7 6 7
0 2 2 3 6 3 1 3 3 3 3 2 4 4 3 4 6 8 8 8 9 9 9 9 8 7 7 6 5 5 6 7 7 7 7 8 8 8 8 9 8 7 7 7
4 3 3 2 4 0 6 5 3 2 2 1 3 3 3 3 4 6 7 8 9 9 8 7 7 7 7 6 6 6 6 7 7 7 7 7 8 8 8 8 8 7 6 6
5 4 4 3 2 5 6 6 5 3 3 3 1 2 3 2 2 6 9 8 8 7 6 6 5 5 6 6 6 6 7 7 6 6 7 7 7 7 7 7 7 6 6 5
2 3 5 4 4 1 7 10 6 3 3 6 3 2 4 5 3 6 8 7 7 6 5 5 5 6 6 6 6 6 7 7 7 6 6 6 5 6 6 6 6 5 5 5
5 5 5 5 4 5 10 10 6 3 5 7 4 4 6 7 6 5 6 6 5 5 5 5 5 4 4 5 5 6 6 5 5 5 5 5 5 5 5 5 5 5 5 5
4 2 2 2 3 3 12 8 4 5 7 5 5 5 5 4 4 5 5 4 5 5 5 5 5 4 3 4 4 5 4 3 3 3 4 4 5 6 6 5 5 6 6 5
2 3 4 3 3 8 8 5 3 6 6 5 5 5 3 3 4 5 5 5 5 5 5 4 5 4 3 3 3 3 2 2 2 2 3 4 4 5 5 6 6 6 6 5
2 3 1 2 5 9 7 5 5 3 5 5 5 3 1 2 4 4 5 5 5 5 4 4 5 5 4 2 2 2 2 2 1 2 3 4 5 5 5 5 5 5 6 6
1 3 3 4 4 7 7 6 7 6 6 6 5 3 1 2 3 4 4 5 4 4 3 4 4 5 5 3 2 3 1 4 2 3 4 4 4 4 4 5 4 5 5 4
4 6 4 1 4 5 8 10 9 9 7 6 5 4 3 1 2 3 4 4 4 4 4 5 5 6 5 4 3 2 2 2 3 4 4 3 3 2 3 4 4 6 5 6
Wind_Direction
235 334 20 11 3 333 312 300 295 299 35 321 298 286 119 104 81 48 35 28 31 21 12 21 10 356 349 346 338 326 318 258 197 169 177 165 168 164 149 147 150 146 112 93
220 42 17 350 339 322 311 303 308 337 1 328 305 298 54 96 86 56 35 27 27 13 2 11 7 2 357 350 345 336 332 315 276 191 174 172 164 160 155 135 115 106 104 98
60 39 3 342 346 343 322 334 344 329 317 299 285 269 232 98 68 50 36 27 22 11 2 3 2 2 358 354 347 336 329 318 296 222 167 157 144 138 128 124 116 107 108 106
61 35 7 355 356 346 319 340 324 305 296 286 279 278 51 62 47 29 20 16 10 7 360 360 360 0 356 355 350 343 338 333 325 282 181 172 163 160 159 147 131 118 112 119
66 38 18 3 348 331 317 312 295 282 272 271 275 273 57 37 26 13 6 4 2 2 358 359 359 359 355 353 348 347 345 345 341 346 261 162 141 135 127 125 122 116 108 110
94 77 45 3 336 334 323 310 291 267 249 253 288 310 51 19 10 2 0 359 358 359 358 356 357 359 357 356 352 352 356 357 357 10 45 113 126 130 132 130 131 121 110 94
125 87 56 20 360 355 342 337 327 328 300 303 11 69 53 18 13 5 357 355 355 356 358 355 356 0 359 360 0 1 9 11 13 29 54 92 112 121 131 138 142 137 131 160
358 78 45 23 11 349 345 354 352 328 332 338 31 77 66 16 3 2 1 358 355 359 357 357 359 3 1 3 5 4 13 20 23 37 55 72 89 100 108 120 136 141 150 186
1 77 70 40 14 15 351 356 334 310 311 320 64 81 39 9 3 0 2 3 0 358 357 360 5 9 8 10 10 13 20 25 28 37 55 66 74 83 96 107 116 134 178 205
343 53 78 53 26 29 11 354 348 349 350 347 52 54 1 354 356 354 359 359 356 356 359 4 9 12 16 15 13 19 21 24 29 36 44 61 66 73 82 95 103 111 258 246
336 319 107 71 39 19 15 13 0 349 23 360 12 37 359 345 347 349 354 352 352 356 1 11 16 16 15 16 17 20 19 22 23 30 38 46 49 55 55 48 24 343 299 271
7 313 74 88 86 48 31 15 8 18 19 24 48 29 340 332 336 347 348 346 351 360 10 15 16 17 17 18 19 22 22 25 22 23 29 33 35 34 27 359 320 309 282 260
344 329 39 140 134 47 30 21 20 29 57 39 45 13 318 329 341 344 343 345 353 7 15 16 16 18 16 20 21 21 20 19 18 21 25 29 26 24 12 353 344 334 318 310
290 31 42 53 53 28 27 26 27 38 56 62 58 347 323 334 335 338 341 346 355 6 12 20 17 15 19 23 23 23 20 20 25 25 22 24 26 17 6 352 350 2 0 357
303 73 81 87 82 62 54 41 43 53 55 72 89 49 351 335 328 342 353 357 9 16 18 20 20 14 22 28 23 24 26 30 34 34 28 24 24 20 16 12 12 15 9 6
357 106 132 131 128 105 78 71 66 69 66 83 87 63 5 342 353 8 16 18 21 21 20 14 16 15 22 30 29 30 32 38 43 41 31 24 27 27 21 21 24 15 15 11
70 269 280 146 154 220 153 114 101 91 78 49 43 44 13 22 31 31 20 18 24 22 20 11 8 11 19 25 31 50 44 40 40 42 39 29 29 29 24 23 21 15 20 21
335 322 294 250 190 331 94 114 128 137 133 88 68 44 15 21 54 55 38 26 23 20 15 5 360 9 13 18 31 53 58 50 42 35 38 36 33 30 26 25 19 14 19 22
339 317 295 310 320 122 148 164 174 201 153 141 100 48 5 316 136 64 43 35 28 18 10 355 351 11 14 14 25 44 50 48 43 37 37 37 35 31 26 23 16 13 13 16
247 266 287 298 301 36 127 140 157 226 185 138 119 53 10 13 69 39 29 32 28 20 9 354 352 14 13 13 27 40 46 43 37 33 37 39 42 40 33 22 12 9 12 11
208 205 236 277 291 87 119 130 159 234 119 125 117 77 44 43 42 21 19 27 28 23 15 2 355 4 3 8 33 44 42 42 42 37 38 37 32 44 46 27 14 12 14 17
299 292 270 282 279 131 138 152 195 100 112 122 110 83 64 44 36 22 11 24 33 25 20 5 346 344 355 10 28 56 47 34 46 49 52 55 47 37 38 35 24 21 16 20
236 315 345 2 64 109 151 168 112 118 134 134 118 96 76 39 28 16 7 22 30 23 17 356 333 330 351 31 34 45 59 21 37 54 64 61 64 64 42 33 31 27 23 20
153 99 289 277 163 161 179 164 138 151 135 126 117 116 84 34 19 10 6 20 19 13 9 350 337 341 351 18 50 66 29 316 303 85 85 77 61 62 57 36 34 38 22 15
349 140 232 246 151 143 180 185 171 168 153 148 149 153 109 26 10 3 0 14 3 358 360 348 339 335 334 357 37 92 40 322 348 63 74 88 85 81 83 69 43 41 52 31
208 184 209 275 141 170 181 182 180 171 173 178 178 175 163 167 359 352 354 358 350 351 1 360 353 339 334 357 8 91 101 329 10 58 55 68 93 86 107 119 98 54 56 47